Home > Weather > Marengo > Past weeks

Flag for USA Past Weather in Marengo, Indiana, USA — Yesterday and Last 2 Weeks

Now
74 °F

Light rain. Passing clouds.


Feels Like: 72 °F
Forecast: 70 / 86 °F
Wind: 6 mph from South

Location: Bowling Green-Warren County Regional Airport

Current Time: Jul 29, 2016 at 6:21:35 AM

Latest Report: Jul 29, 2016 at 5:53 AM


Visibility: 10 mi

Pressure: 29.92 "Hg

Humidity: 91%

Dew Point: 71 °F

Location of MarengoLocation

Past Weather in Marengo — Graph

°F

Marengo Temperature Yesterday

Maximum temperature yesterday: 85 °F (at 4:53 PM)
Minimum temperature yesterday: 72 °F (at 8:00 AM)
Average temperature yesterday: 77 °F

High & Low Weather Summary for the Past Weeks

 TemperatureHumidityPressure
High94 °F (Jul 19, 2:53 PM)97% (Jul 17, 5:59 AM)30.23 "Hg (Jul 17, 5:59 AM)
Low68 °F (Jul 15, 5:53 AM)45% (Jul 15, 6:53 PM)29.87 "Hg (Jul 28, 4:53 PM)
Average81 °F77%30.04 "Hg
* Reported Jul 14 4:53 AM — Jul 29 4:53 AM, Marengo, Weather by CustomWeather, © 2016

Note: Actual official high and low records may vary slightly from our data, if they occured in-between our weather recording intervals... More about our weather records

Advertising

Marengo Weather History for the Previous 24 Hours

Scroll right to see more
 ConditionsComfort  
Time TempWeatherWind HumidityBarometerVisibility
4:53 AM
Fri, Jul 29
73 °FClear.3 mph94%29.92 "Hg10 mi
3:53 AM74 °FMostly cloudy.3 mph91%29.92 "Hg10 mi
2:53 AM73 °FClear.3 mph90%29.90 "Hg10 mi
1:53 AM74 °FLight rain. Passing clouds.5 mph91%29.90 "Hg10 mi
12:53 AM77 °FPassing clouds.No wind88%29.92 "Hg10 mi
11:53 PM
Thu, Jul 28
78 °FPassing clouds.7 mph84%29.92 "Hg10 mi
10:53 PM77 °FClear.5 mph88%29.92 "Hg10 mi
9:53 PM78 °FClear.3 mph84%29.92 "Hg10 mi
8:53 PM80 °FSunny.6 mph79%29.90 "Hg10 mi
7:53 PM83 °FScattered clouds.7 mph72%29.89 "Hg10 mi
6:53 PM82 °FMore clouds than sun.5 mph72%29.89 "Hg10 mi
5:53 PM84 °FOvercast.No wind63%29.87 "Hg10 mi
4:53 PM85 °FScattered clouds.No wind63%29.87 "Hg10 mi
3:53 PM82 °FScattered clouds.3 mph70%29.88 "Hg10 mi
2:53 PM81 °FSunny.3 mph72%29.89 "Hg10 mi
1:53 PM77 °FBroken clouds.6 mph85%29.90 "Hg10 mi
12:53 PM75 °FLight rain. Low clouds.3 mph90%29.92 "Hg9 mi
11:53 AM74 °FRain. Fog.5 mph94%29.92 "Hg5 mi
10:53 AM75 °FRain. Mostly cloudy.No wind88%29.93 "Hg9 mi
9:53 AM75 °FLow clouds.No wind88%29.93 "Hg10 mi
8:53 AM74 °FMostly cloudy.No wind91%29.92 "Hg10 mi
8:00 AM72 °FRain. Fog.5 mph93%29.94 "Hg3 mi
7:53 AM73 °FThundershowers. Fog.5 mph94%29.92 "Hg2 mi
7:03 AM73 °FStrong thunderstorms. Fog.No wind97%29.93 "Hg1 mi
6:59 AM73 °FStrong thunderstorms. Fog.7 mph94%29.93 "Hg1 mi
6:53 AM74 °FHeavy rain. Fog.12 mph94%29.90 "Hg2 mi
Weather by CustomWeather, © 2016

See weather overviewHow to use our weather pages